Location: Unspecified
(49.2170°N, 0.0000°E)
Time: 06:08:33
(UTC+00:00)

X-37B - Visible Passes

Search period start: 25 November 2020 00:00
Search period end: 05 December 2020 00:00
Orbit: 384 x 389 km, 45.0° (Epoch: 12 November)

Date Brightness Start Highest point End Pass type
(mag) Time Alt. Az. Time Alt. Az. Time Alt. Az.
27 Nov 3.2 18:07:35 10° S 18:08:23 12° SSE 18:08:23 12° SSE visible
28 Nov 3.4 18:44:05 10° SW 18:44:49 15° SSW 18:44:49 15° SSW visible
29 Nov 2.5 17:46:03 10° SSW 17:48:22 19° SSE 17:48:55 18° SE visible
30 Nov 3.1 16:48:27 10° S 16:50:01 13° SSE 16:51:37 10° ESE visible
30 Nov 2.3 18:23:11 10° SW 18:25:15 27° SSW 18:25:15 27° SSW visible
01 Dec 2.2 17:24:57 10° SW 17:27:38 25° SSE 17:29:18 17° ESE visible
01 Dec 3.7 19:00:53 10° WSW 19:01:34 15° WSW 19:01:34 15° WSW visible
02 Dec 1.5 18:02:25 10° WSW 18:05:24 37° S 18:05:36 36° SSE visible
03 Dec 2.0 17:04:03 10° SW 17:06:56 32° S 17:09:39 11° ESE visible
03 Dec 2.8 18:40:15 10° WSW 18:41:55 24° SW 18:41:55 24° SW visible
04 Dec 1.6 17:41:45 10° WSW 17:44:44 38° S 17:46:00 26° SE visible
